Weather History for Eureka Airport, NV

Change the Weather History Date:

Tuesday, April 30, 2013

  Actual Average Record
Temperature  
Mean Temperature 48 °F -  
Max Temperature 64 °F - - ()
Min Temperature 32 °F - - ()
Degree Days  
Heating Degree Days 17    
Moisture  
Dew Point 12 °F    
Average Humidity 31    
Maximum Humidity 75    
Minimum Humidity 8    
Precipitation  
Precipitation 0.00 in - - ()
Sea Level Pressure  
Sea Level Pressure 29.98 in    
Wind  
Wind Speed 8 mph (NNW)    
Max Wind Speed 23 mph    
Max Gust Speed 36 mph    
Visibility 10 miles    
Events      
T = Trace of Precipitation, MM = Missing Value Source: NWS Daily Summary

Daily Weather History Graph

Daily Weather History Graph

Search for Another Location

Airport:

Trip Planner

Search our weather history database for the weather conditions in past years. The results will help you decide how hot, cold, wet, or windy it might be!

Date:

Astronomy

Apr. 30, 2013 Rise Set
Actual Time 5:45 AM PDT 7:37 PM PDT
Civil Twilight 5:16 AM PDT 8:06 PM PDT
Nautical Twilight 4:41 AM PDT 8:41 PM PDT
Astronomical Twilight 4:03 AM PDT 9:19 PM PDT
Moon 12:03 AM PDT (4/30) 10:19 AM PDT (4/30)
Length of Visible Light 14h 49m
Length of Day
13h 51m
Waning Gibbous, 69% of the Moon is Illuminated
Apr 30
Waning Gibbous
May 2
Last Quarter
May 9
New
May 17
First Quarter
May 24
Full

Hourly Weather History & Observations

Time (PDT) Temp. Windchill Dew Point Humidity Pressure Visibility Wind Dir Wind Speed Gust Speed Precip Events Conditions
12:10 AM 48.2 °F - 28.4 °F 46% 29.91 in 10.0 mi NNW 8.1 mph - N/A   Clear
12:30 AM 46.4 °F 42.9 °F 28.4 °F 50% 29.92 in 10.0 mi SSE 6.9 mph - N/A   Clear
12:50 AM 46.4 °F - 26.6 °F 46% 29.92 in 10.0 mi Calm Calm - N/A   Clear
1:10 AM 44.6 °F 41.4 °F 26.6 °F 49% 29.92 in 10.0 mi SE 5.8 mph - N/A   Clear
1:30 AM 39.2 °F - 26.6 °F 61% 29.91 in 10.0 mi Calm Calm - N/A   Clear
1:50 AM 41.0 °F 37.1 °F 26.6 °F 57% 29.91 in 10.0 mi SSW 5.8 mph - N/A   Clear
2:10 AM 39.2 °F 37.0 °F 24.8 °F 56% 29.92 in 10.0 mi South 3.5 mph - N/A   Clear
2:30 AM 37.4 °F - 24.8 °F 60% 29.91 in 10.0 mi Calm Calm - N/A   Clear
2:50 AM 35.6 °F - 24.8 °F 65% 29.91 in 10.0 mi Calm Calm - N/A   Clear
3:10 AM 35.6 °F 32.8 °F 26.6 °F 70% 29.91 in 10.0 mi SSW 3.5 mph - N/A   Clear
3:30 AM 35.6 °F - 24.8 °F 65% 29.91 in 10.0 mi Calm Calm - N/A   Clear
3:50 AM 35.6 °F - 23.0 °F 60% 29.92 in 10.0 mi Calm Calm - N/A   Clear
4:10 AM 35.6 °F 31.7 °F 24.8 °F 65% 29.91 in 10.0 mi SSW 4.6 mph - N/A   Clear
4:30 AM 35.6 °F 31.7 °F 24.8 °F 65% 29.90 in 10.0 mi SSW 4.6 mph - N/A   Clear
4:50 AM 32.0 °F - 23.0 °F 69% 29.91 in 10.0 mi Calm Calm - N/A   Clear
5:10 AM 35.6 °F 32.8 °F 24.8 °F 65% 29.90 in 10.0 mi South 3.5 mph - N/A   Clear
5:30 AM 35.6 °F - 24.8 °F 65% 29.90 in 10.0 mi Calm Calm - N/A   Clear
5:50 AM 33.8 °F 30.8 °F 23.0 °F 65% 29.90 in 10.0 mi South 3.5 mph - N/A   Clear
6:10 AM 32.0 °F 27.5 °F 24.8 °F 75% 29.90 in 10.0 mi SSE 4.6 mph - N/A   Clear
6:30 AM 32.0 °F - 24.8 °F 75% 29.91 in 10.0 mi Calm Calm - N/A   Clear
6:50 AM 39.2 °F - 26.6 °F 61% 29.92 in 10.0 mi Calm Calm - N/A   Mostly Cloudy
7:10 AM 41.0 °F 38.0 °F 26.6 °F 57% 29.93 in 10.0 mi North 4.6 mph - N/A   Overcast
7:30 AM 42.8 °F 38.6 °F 26.6 °F 53% 29.94 in 10.0 mi NNE 6.9 mph - N/A   Overcast
7:50 AM 44.6 °F 41.4 °F 26.6 °F 49% 29.95 in 10.0 mi ENE 5.8 mph - N/A   Overcast
8:10 AM 44.6 °F - 26.6 °F 49% 29.95 in 10.0 mi Calm Calm - N/A   Overcast
8:30 AM 46.4 °F 45.2 °F 24.8 °F 43% 29.96 in 10.0 mi East 3.5 mph - N/A   Mostly Cloudy
8:50 AM 50.0 °F - 23.0 °F 35% 29.96 in 10.0 mi NE 6.9 mph - N/A   Mostly Cloudy
9:10 AM 53.6 °F - 23.0 °F 30% 29.96 in 10.0 mi North 4.6 mph - N/A   Partly Cloudy
9:30 AM 53.6 °F - 23.0 °F 30% 29.96 in 10.0 mi NNE 6.9 mph - N/A   Partly Cloudy
9:50 AM 55.4 °F - 23.0 °F 29% 29.96 in 10.0 mi NNE 8.1 mph - N/A   Clear
10:10 AM 57.2 °F - 23.0 °F 27% 29.96 in 10.0 mi NNE 11.5 mph - N/A   Clear
10:30 AM 59.0 °F - 23.0 °F 25% 29.96 in 10.0 mi NNW 3.5 mph - N/A   Clear
10:50 AM 59.0 °F - 21.2 °F 23% 29.96 in 10.0 mi West 8.1 mph - N/A   Clear
11:10 AM 62.6 °F - 15.8 °F 16% 29.97 in 10.0 mi WNW 11.5 mph 18.4 mph N/A   Clear
11:30 AM 60.8 °F - 10.4 °F 14% 29.97 in 10.0 mi WNW 15.0 mph 21.9 mph N/A   Clear
11:50 AM 60.8 °F - 10.4 °F 14% 29.97 in 10.0 mi WNW 9.2 mph 18.4 mph N/A   Clear
12:10 PM 60.8 °F - 8.6 °F 13% 29.96 in 10.0 mi West 15.0 mph 24.2 mph N/A   Clear
12:30 PM 60.8 °F - 12.2 °F 15% 29.95 in 10.0 mi West 15.0 mph 20.7 mph N/A   Clear
12:50 PM 62.6 °F - 12.2 °F 14% 29.95 in 10.0 mi NNW 10.4 mph 23.0 mph N/A   Clear
1:10 PM 64.4 °F - 12.2 °F 13% 29.95 in 10.0 mi NW 12.7 mph 32.2 mph N/A   Clear
1:30 PM 62.6 °F - 12.2 °F 14% 29.95 in 10.0 mi WNW 11.5 mph 26.5 mph N/A   Clear
1:50 PM 64.4 °F - 14.0 °F 14% 29.94 in 10.0 mi NW 23.0 mph 29.9 mph N/A   Clear
2:10 PM 64.4 °F - 12.2 °F 13% 29.95 in 10.0 mi WNW 13.8 mph 26.5 mph N/A   Clear
2:30 PM 64.4 °F - 8.6 °F 11% 29.94 in 10.0 mi NW 23.0 mph 35.7 mph N/A   Clear
2:50 PM 64.4 °F - 8.6 °F 11% 29.94 in 10.0 mi NW 19.6 mph 31.1 mph N/A   Clear
3:10 PM 64.4 °F - 8.6 °F 11% 29.94 in 10.0 mi NW 18.4 mph 25.3 mph N/A   Clear
3:30 PM 64.4 °F - 6.8 °F 10% 29.95 in 10.0 mi NNW 21.9 mph 26.5 mph N/A   Clear
3:50 PM 64.4 °F - 5.0 °F 10% 29.95 in 10.0 mi NW 20.7 mph 31.1 mph N/A   Clear
4:10 PM 64.4 °F - 5.0 °F 10% 29.95 in 10.0 mi NW 17.3 mph 28.8 mph N/A   Clear
4:30 PM 62.6 °F - 5.0 °F 10% 29.95 in 10.0 mi WNW 13.8 mph 26.5 mph N/A   Clear
4:50 PM 62.6 °F - 6.8 °F 11% 29.96 in 10.0 mi NW 11.5 mph 28.8 mph N/A   Clear
5:10 PM 62.6 °F - 5.0 °F 10% 29.96 in 10.0 mi NNW 19.6 mph 24.2 mph N/A   Clear
5:30 PM 60.8 °F - 5.0 °F 11% 29.97 in 10.0 mi NW 18.4 mph 29.9 mph N/A   Clear
5:50 PM 59.0 °F - 5.0 °F 12% 29.98 in 10.0 mi North 19.6 mph 27.6 mph N/A   Clear
6:10 PM 57.2 °F - 1.4 °F 10% 29.99 in 10.0 mi North 20.7 mph 26.5 mph N/A   Clear
6:30 PM 55.4 °F - 1.4 °F 11% 30.00 in 10.0 mi North 19.6 mph 25.3 mph N/A   Clear
6:50 PM 53.6 °F - -0.4 °F 11% 30.01 in 10.0 mi North 20.7 mph 28.8 mph N/A   Clear
7:10 PM 50.0 °F - -0.4 °F 13% 30.03 in 10.0 mi North 16.1 mph 25.3 mph N/A   Clear
7:30 PM 48.2 °F - -5.8 °F 10% 30.05 in 10.0 mi North 17.3 mph 23.0 mph N/A   Clear
7:50 PM 46.4 °F 39.2 °F -7.6 °F 10% 30.07 in 10.0 mi North 18.4 mph 25.3 mph N/A   Clear
8:05 PM 44.6 °F 37.4 °F -7.6 °F 11% 30.08 in 10.0 mi North 16.1 mph - N/A   Clear
8:30 PM 44.6 °F 36.9 °F -11.2 °F 9% 30.10 in 10.0 mi NNW 18.4 mph 21.9 mph N/A   Clear
8:50 PM 42.8 °F 35.8 °F -14.8 °F 8% 30.10 in 10.0 mi NNW 13.8 mph 20.7 mph N/A   Clear
9:10 PM 41.0 °F 33.9 °F -11.2 °F 11% 30.12 in 10.0 mi North 12.7 mph 16.1 mph N/A   Clear
9:30 PM 41.0 °F 36.4 °F -11.2 °F 11% 30.13 in 10.0 mi NNW 6.9 mph - N/A   Clear
9:50 PM 39.2 °F 34.2 °F -9.4 °F 12% 30.15 in 10.0 mi NNW 6.9 mph - N/A   Clear
10:10 PM 37.4 °F 32.1 °F -9.4 °F 13% 30.15 in 10.0 mi NNW 6.9 mph - N/A   Clear
10:30 PM 35.6 °F 31.7 °F -7.6 °F 16% 30.16 in 10.0 mi NW 4.6 mph - N/A   Clear
10:50 PM 35.6 °F 30.7 °F -7.6 °F 16% 30.17 in 10.0 mi NW 5.8 mph - N/A   Clear
11:10 PM 35.6 °F 29.2 °F -9.4 °F 14% 30.18 in 10.0 mi NNW 8.1 mph - N/A   Clear
11:30 PM 33.8 °F 27.7 °F -7.6 °F 17% 30.18 in 10.0 mi NNW 6.9 mph - N/A   Unknown
11:50 PM 32.0 °F 26.4 °F -5.8 °F 20% 30.20 in 10.0 mi East 5.8 mph - N/A   Clear